sat.trackr.live / text

‹ back to catalog

STARLINK-32405

NORAD 61636 · 2024-191R

PAYLOAD ACTIVE UNKNOWN

§ Identity

Operator
Country
US
Launch date
2024-10-23
Launch site
AFETR
Launch vehicle
Mass (kg)
RCS (m²)

Purposes: comms

External: N2YO · Heavens-Above · Gunter

§ Orbital elements

Epoch: 2026-09-21T00:13:42.873600Z

Period
94.27 min
Inclination
43.0035°
Eccentricity
0.0000788
Mean motion
15.27570922 rev/d
Perigee alt
482.5 km
Apogee alt
483.6 km
Semi-major
6,861.2 km
B*
-1.2636e-5
RAAN
135.2786°
Arg perigee
344.3241°
Mean anomaly
15.7586°
Rev number
10,736

§ Raw data

STARLINK-324051 61636U 24191R   26264.00952400 -.00000610  00000+0 -12636-4 0  99992 61636  43.0035 135.2786 0000788 344.3241  15.7586 15.27570922107364

JSON: /api/v1/satellites/61636 · /tle

For live sub-satellite position, see the globe view (requires WebGL).

§ Visibility from observer

Set your observer location to see the next 7 days of passes ≥ 10°. The values pass through the URL so the page stays shareable.

No JS? Fill the form by hand. The geolocation button needs JavaScript.